Waarnemingen

Advertentie
Mijn weer
Dax, Frankrijk (7603): temperatuur & dauwpunt: 14.11.2018 12:00:00 - 20.11.2018 12:00:00 (CET)Dax, Frankrijk (7603): temperatuur 5cm: 14.11.2018 12:00:00 - 20.11.2018 12:00:00 (CET)Dax, Frankrijk (7603): temperatuur -20cm & temperatuur -100cm: 14.11.2018 12:00:00 - 20.11.2018 12:00:00 (CET)Dax, Frankrijk (7603): windsnelheid & windstoten: 14.11.2018 12:00:00 - 20.11.2018 12:00:00 (CET)Dax, Frankrijk (7603): windrichting: 14.11.2018 12:00:00 - 20.11.2018 12:00:00 (CET)Dax, Frankrijk (7603): luchtdruk: 14.11.2018 12:00:00 - 20.11.2018 12:00:00 (CET)Dax, Frankrijk (7603): zicht: 14.11.2018 12:00:00 - 20.11.2018 12:00:00 (CET)Dax, Frankrijk (7603): Zonneschijnduur: 14.11.2018 12:00:00 - 20.11.2018 12:00:00 (CET)Dax, Frankrijk (7603): neerslag: 14.11.2018 12:00:00 - 20.11.2018 12:00:00 (CET)
Datum & Tijd tt [°C] td [°C] tt 5cm [°C] tt -20cm [°C] tt -100cm [°C] ff [km/u] ff [kn] fx [km/u] fx [kn] dd ppp [hPa] vv [km] sd [min] rr [mm]
20.11.2018 12:00:00 3,2 1,1 2,7 11,4 15,4 2 1 6 4 NNW 1003,3 6 0 0,0
20.11.2018 11:00:00 2,0 -0,4 2,2 11,5 15,4 2 1 8 4 OZO 1003,2 4,5 0 0,0
20.11.2018 10:00:00 1,3 -0,5 1,1 11,5 15,4 0 0 8 4 N 1003,1 4,5 0 0,0
20.11.2018 09:00:00 0,6 -0,6 0,2 11,7 15,4 0 0 8 4 N 1003,1 4,0 0 0,0
20.11.2018 08:00:00 0,2 -0,5 -0,4 11,7 15,4 0 0 7 4 N 1002,5 3,6 0 0,0
20.11.2018 07:00:00 -0,3 -0,9 -1,7 11,9 15,4 4 2 9 5 Z 1002,1 2,5 0 0,0
20.11.2018 06:00:00 -0,8 -1,5 -2,1 12,0 15,4 0 0 6 3 N 1002,0 2,0 0 0,0
20.11.2018 05:00:00 -0,7 -1,5 -1,9 12,1 15,5 0 0 11 6 N 1002,1 3,2 0 0,0
20.11.2018 04:00:00 0,0 -0,9 -0,6 12,2 15,5 5 3 9 5 W 1002,2 4,3 0 0,0
20.11.2018 03:00:00 0,8 -0,5 -0,1 12,3 15,5 3 1 10 6 WNW 1002,3 6 0 0,0
20.11.2018 02:00:00 1,6 -0,2 0,9 12,5 15,5 5 3 9 5 NNW 1001,9 7 0 0,0
20.11.2018 01:00:00 2,5 0,4 1,8 12,5 15,5 7 4 17 9 N 1002,0 6 0 0,0
20.11.2018 00:00:00 3,0 1,4 2,4 12,6 15,4 8 4 12 7 N 1002,0 6 0 0,0
19.11.2018 23:00:00 3,9 2,7 2,8 12,7 15,5 6 3 8 5 N 1002,1 5 0 0,0
19.11.2018 22:00:00 4,7 3,2 3,3 12,8 15,5 3 2 6 3 NW 1002,4 4,9 0 0,0
19.11.2018 21:00:00 6,6 3,4 5,5 12,9 15,5 4 2 17 9 NO 1002,5 9 0 0,0
19.11.2018 20:00:00 7,9 4,1 6,4 12,9 15,5 11 6 22 12 NNO 1002,5 11 0 0,0
19.11.2018 19:00:00 8,2 7,0 6,7 12,9 15,5 3 2 11 6 WNW 1002,1 4,3 0 0,0
19.11.2018 18:00:00 9,4 7,5 8,5 12,8 15,5 9 5 15 8 ZZW 1001,9 7 11 0,0
19.11.2018 17:00:00 12,8 5,9 12,9 12,8 15,5 5 3 11 6 ZZW 1002,0 12 60 0,0
19.11.2018 16:00:00 14,0 5,6 16,5 12,6 15,5 5 3 10 5 Z 1002,2 12 60 0,0
19.11.2018 15:00:00 13,0 5,6 16,0 12,5 15,5 8 5 14 8 NNO 1002,8 12 60 0,0
19.11.2018 14:00:00 12,4 6,2 15,1 12,4 15,5 5 3 14 8 NO 1003,5 12 60 0,0
19.11.2018 13:00:00 11,3 6,6 13,2 12,4 15,5 8 4 15 8 O 1004,2 10 60 0,0
19.11.2018 12:00:00 9,8 6,1 11,7 12,4 15,5 6 3 16 9 NO 1005,2 12 60 0,0
19.11.2018 11:00:00 8,3 5,4 9,0 12,5 15,6 6 4 19 11 ONO 1006,0 4,0 60 0,0
19.11.2018 10:00:00 6,7 4,9 6,9 12,5 15,5 12 6 19 10 NO 1006,2 2,3 60 0,0
19.11.2018 09:00:00 5,6 4,2 4,1 12,6 15,6 10 5 16 9 NNO 1006,3 3,4 29 0,0
19.11.2018 08:00:00 4,6 3,9 3,9 12,7 15,6 4 2 16 9 NNO 1006,5 2,0 0 0,0
19.11.2018 07:00:00 4,9 4,2 3,8 12,8 15,6 10 6 16 9 NO 1006,8 2,0 0 0,0
19.11.2018 06:00:00 5,3 4,4 5,0 12,9 15,6 11 6 16 9 NO 1007,2 4,8 0 0,0
19.11.2018 05:00:00 5,6 4,7 4,9 13,0 15,6 9 5 15 8 NO 1007,4 6 0 0,0
19.11.2018 04:00:00 6,0 5,1 5,4 13,0 15,6 10 5 19 10 ONO 1007,6 2,9 0 0,0
19.11.2018 03:00:00 6,6 5,7 5,4 13,1 15,6 10 5 16 8 NO 1007,6 3,1 0 0,0
19.11.2018 02:00:00 7,5 6,4 5,7 13,2 15,6 10 5 15 8 NO 1007,8 8 0 0,0
19.11.2018 01:00:00 7,4 6,3 5,7 13,2 15,6 3 1 11 6 ONO 1008,5 4,7 0 0,0
19.11.2018 00:00:00 8,8 7,6 8,0 13,3 15,6 9 5 13 7 NO 1009,0 8 0 0,0
18.11.2018 23:00:00 9,5 7,8 8,3 13,3 15,6 8 5 13 7 NO 1009,3 9 0 0,0
18.11.2018 22:00:00 9,9 8,0 9,0 13,3 15,6 10 5 14 8 ONO 1009,5 11 0 0,0
18.11.2018 21:00:00 10,4 8,7 9,2 13,4 15,6 10 5 14 8 ONO 1009,4 9 0 0,0
18.11.2018 20:00:00 10,4 9,0 9,5 13,4 15,6 4 2 16 9 O 1009,3 11 0 0,0
18.11.2018 19:00:00 11,2 9,3 10,0 13,4 15,6 13 7 19 11 ONO 1009,2 14 0 0,2
18.11.2018 18:00:00 11,5 10,4 10,7 13,3 15,6 8 5 13 7 ONO 1009,1 10 0 0,0
18.11.2018 17:00:00 11,5 10,6 10,9 13,3 15,6 4 2 11 6 OZO 1009,2 9 0 0,4
18.11.2018 16:00:00 11,9 9,8 11,0 13,2 15,6 3 2 10 6 ONO 1009,3 3,5 0 0,4
18.11.2018 15:00:00 11,8 9,7 11,0 13,2 15,6 6 3 12 6 OZO 1009,3 16 0 0,2
18.11.2018 14:00:00 11,8 9,2 12,3 13,2 15,6 8 4 23 12 NO 1009,3 24 0 0,0
18.11.2018 13:00:00 11,8 9,0 11,7 13,1 15,6 7 4 21 12 O 1009,7 17 3 0,0
18.11.2018 12:00:00 12,1 9,7 10,4 13,1 15,6 16 8 25 13 O 1009,9 31 26 0,0
18.11.2018 11:00:00 10,1 8,7 8,5 13,2 15,6 14 7 29 15 O 1010,3 23 0 1,2
18.11.2018 10:00:00 9,0 7,9 8,4 13,3 15,6 7 4 18 10 O 1010,7 2,8 0 2,2
18.11.2018 09:00:00 8,9 8,0 8,2 13,3 15,6 4 2 36 19 NNW 1010,2 15 0 1,8
18.11.2018 08:00:00 9,1 7,7 8,2 13,4 15,6 24 13 36 20 O 1009,3 1,1 0 5,1
18.11.2018 07:00:00 9,6 7,7 8,3 13,4 15,6 15 8 21 12 O 1009,7 37 0 0,0
18.11.2018 06:00:00 9,2 7,6 8,4 13,5 15,6 12 7 23 12 O 1009,7 26 0 0,0
18.11.2018 05:00:00 9,2 7,5 8,4 13,5 15,6 15 8 23 13 O 1009,8 24 0 0,0
18.11.2018 04:00:00 9,4 7,8 8,6 13,6 15,6 14 7 31 17 O 1010,4 17 0 0,0
18.11.2018 03:00:00 9,7 8,5 8,8 13,6 15,6 16 9 27 15 O 1010,8 16 0 0,0
18.11.2018 02:00:00 9,4 8,8 8,6 13,6 15,6 12 7 20 11 ONO 1010,9 8 0 0,0
18.11.2018 01:00:00 9,4 9,3 8,9 13,7 15,6 11 6 20 11 ONO 1011,2 5 0 0,0
18.11.2018 00:00:00 9,4 9,3 8,9 13,7 15,7 9 5 17 9 ONO 1011,7 3,9 0 0,0
17.11.2018 23:00:00 10,1 9,9 10,0 13,7 15,6 5 3 12 7 ONO 1011,9 1,9 0 0,0
17.11.2018 22:00:00 10,5 10,5 10,2 13,7 15,7 5 3 10 6 NO 1012,0 0,1 0 0,0
17.11.2018 21:00:00 10,4 10,2 10,3 13,7 15,7 7 4 10 5 ONO 1012,5 0,1 0 0,0
17.11.2018 20:00:00 10,6 10,4 10,4 13,7 15,6 5 3 10 5 ONO 1012,5 0,1 0 0,0
17.11.2018 19:00:00 11,1 10,9 10,9 13,7 15,7 2 1 9 5 NO 1012,9 0,1 0 0,0
17.11.2018 18:00:00 11,4 11,2 11,3 13,6 15,7 4 2 16 8 NO 1013,0 0,1 0 0,0
17.11.2018 17:00:00 11,7 11,4 11,7 13,6 15,7 10 5 17 9 NO 1013,5 0,3 0 0,0
17.11.2018 16:00:00 11,9 11,3 12,7 13,5 15,7 9 5 13 7 NO 1013,7 1,3 0 0,0
17.11.2018 15:00:00 11,9 11,1 13,1 13,4 15,7 8 4 14 7 NO 1014,0 2,7 0 0,0
17.11.2018 14:00:00 11,7 11,1 12,0 13,3 15,7 6 3 20 11 NO 1014,7 3,3 0 0,0
17.11.2018 13:00:00 10,8 10,5 11,6 13,2 15,7 11 6 18 10 NO 1015,6 2,0 4 0,0
17.11.2018 12:00:00 10,3 10,3 10,0 13,2 15,7 9 5 16 9 O 1016,1 2,7 1 0,0
17.11.2018 11:00:00 9,1 9,1 8,7 13,2 15,7 6 4 13 7 O 1016,7 0,5 0 0,0
17.11.2018 10:00:00 8,1 8,1 7,8 13,3 15,7 9 5 14 7 O 1017,3 0,2 0 0,0
17.11.2018 09:00:00 7,6 7,6 7,5 13,3 15,7 6 3 15 8 O 1017,3 0,1 0 0,0
17.11.2018 08:00:00 7,5 7,5 7,3 13,3 15,7 7 4 14 7 ONO 1017,2 0,1 0 0,0
17.11.2018 07:00:00 7,7 7,7 7,5 13,4 15,7 9 5 16 8 O 1017,0 0,1 0 0,0
17.11.2018 06:00:00 7,8 7,8 7,5 13,4 15,7 7 4 11 6 ONO 1017,3 0,1 0 0,0
17.11.2018 05:00:00 7,8 7,7 7,7 13,4 15,7 5 3 11 6 ONO 1017,4 0,1 0 0,0
17.11.2018 04:00:00 8,0 7,9 7,6 13,5 15,7 4 2 12 6 NO 1017,4 0,1 0 0,0
17.11.2018 03:00:00 8,3 8,2 7,8 13,5 15,7 4 2 9 5 NO 1017,8 0,1 0 0,0
17.11.2018 02:00:00 8,9 8,8 7,8 13,6 15,7 4 2 7 4 ONO 1017,8 0,2 0 0,0
17.11.2018 01:00:00 9,6 9,5 8,9 13,6 15,7 3 2 6 4 NO 1018,2 0,1 0 0,0
17.11.2018 00:00:00 9,6 9,3 8,3 13,7 15,8 3 1 10 5 ONO 1018,4 0,1 0 0,0
16.11.2018 23:00:00 10,3 10,0 8,8 13,7 15,7 4 2 12 7 O 1018,4 0,1 0 0,0
16.11.2018 22:00:00 10,2 9,6 8,7 13,8 15,8 2 1 8 4 O 1018,3 0,1 0 0,0
16.11.2018 21:00:00 11,5 10,7 9,8 13,8 15,7 0 0 9 5 N 1018,5 1,6 0 0,0
16.11.2018 20:00:00 12,9 11,5 11,1 13,8 15,8 2 1 8 4 ONO 1018,5 4,5 0 0,0
16.11.2018 19:00:00 13,7 11,9 11,9 13,8 15,7 5 3 10 5 O 1018,6 8 0 0,0
16.11.2018 18:00:00 14,5 11,8 12,9 13,7 15,8 4 2 14 8 O 1018,7 9 11 0,0
16.11.2018 17:00:00 16,2 12,2 16,2 13,6 15,8 10 5 17 9 O 1018,7 12 60 0,0
16.11.2018 16:00:00 17,1 12,2 19,1 13,5 15,8 10 5 18 10 ONO 1018,8 9 60 0,0
16.11.2018 15:00:00 16,7 12,2 16,6 13,4 15,8 12 7 19 10 ONO 1019,0 9 54 0,0
16.11.2018 14:00:00 14,6 12,1 15,7 13,3 15,8 8 4 16 9 NNO 1019,3 8 32 0,0
16.11.2018 13:00:00 12,7 11,1 13,0 13,3 15,8 11 6 20 11 NO 1020,0 6 51 0,0
16.11.2018 12:00:00 10,9 10,7 10,5 13,3 15,8 10 6 17 9 ONO 1020,7 3,0 5 0,0
16.11.2018 11:00:00 9,5 9,4 9,5 13,3 15,8 10 6 16 9 ONO 1020,8 0,8 0 0,0
16.11.2018 10:00:00 8,6 8,5 8,2 13,3 15,8 5 3 13 7 - 1020,7 0,4 7 0,0
16.11.2018 09:00:00 7,6 7,5 6,5 13,4 15,8 6 4 11 6 NO 1020,4 0,5 9 0,0
16.11.2018 08:00:00 6,9 6,8 5,7 13,4 15,8 5 3 8 4 ONO 1020,0 0,4 0 0,0
16.11.2018 07:00:00 7,3 7,2 6,6 13,5 15,8 3 2 10 5 O 1019,9 0,1 0 0,0
16.11.2018 06:00:00 8,0 7,9 7,2 13,6 15,8 8 5 11 6 NO 1019,9 0,2 0 0,0
16.11.2018 05:00:00 8,5 8,2 7,3 13,7 15,8 3 2 11 6 NNO 1019,6 0,4 0 0,0
16.11.2018 04:00:00 9,0 8,5 7,5 13,7 15,8 5 3 9 5 ONO 1019,7 1,1 0 0,0
16.11.2018 03:00:00 9,5 9,2 7,9 13,8 15,8 3 2 6 3 NO 1020,0 0,8 0 0,0
16.11.2018 02:00:00 10,4 10,1 7,8 13,9 15,9 3 2 8 5 NO 1020,0 1,4 0 0,0
16.11.2018 01:00:00 11,2 10,9 8,3 13,9 15,8 5 3 7 4 NO 1020,3 1,8 0 0,0
16.11.2018 00:00:00 11,0 10,5 9,2 13,9 15,8 2 1 8 4 NO 1020,3 1,4 0 0,0
15.11.2018 23:00:00 11,2 10,6 9,2 14,0 15,8 5 3 9 5 O 1020,1 2,5 0 0,0
15.11.2018 22:00:00 12,1 11,3 9,9 14,1 15,9 2 1 7 4 N 1019,9 4,1 0 0,0
15.11.2018 21:00:00 13,1 12,0 11,3 14,1 15,9 5 3 6 4 NO 1019,3 8 0 0,0
15.11.2018 20:00:00 14,5 11,6 12,7 14,0 15,9 2 1 13 7 ONO 1018,9 10 0 0,0
15.11.2018 19:00:00 15,7 12,3 14,2 13,9 15,9 9 5 16 8 ONO 1018,4 13 0 0,0
15.11.2018 18:00:00 16,7 12,2 15,2 13,8 15,9 9 5 13 7 O 1018,3 15 15 0,0
15.11.2018 17:00:00 19,4 12,9 19,3 13,7 15,9 9 5 17 9 O 1018,1 12 48 0,0
15.11.2018 16:00:00 19,5 12,5 19,4 13,5 15,9 9 5 14 8 ONO 1018,0 12 21 0,0
15.11.2018 15:00:00 19,8 12,3 22,7 13,4 15,9 7 4 16 9 NO 1018,2 12 60 0,0
15.11.2018 14:00:00 19,1 13,1 19,9 13,3 15,9 5 3 16 8 ONO 1018,4 10 60 0,0
15.11.2018 13:00:00 16,7 12,8 17,8 13,2 15,9 4 2 12 7 NO 1018,9 9 60 0,0
15.11.2018 12:00:00 13,7 11,0 14,7 13,1 15,9 6 3 11 6 NO 1019,4 10 60 0,0
15.11.2018 11:00:00 11,1 9,7 11,4 13,2 15,9 6 4 10 5 ONO 1019,7 6 60 0,0
15.11.2018 10:00:00 8,9 8,1 8,8 13,2 15,9 4 2 10 6 ONO 1019,5 2,0 60 0,0
15.11.2018 09:00:00 7,0 6,9 5,1 13,3 15,9 5 3 9 5 ONO 1019,3 1,5 38 0,0
15.11.2018 08:00:00 6,1 5,8 5,1 13,4 15,9 4 2 8 4 O 1018,6 2,8 0 0,0
15.11.2018 07:00:00 7,1 7,0 5,0 13,5 15,9 5 3 8 4 NO 1018,1 2,0 0 0,0
15.11.2018 06:00:00 7,2 7,1 5,3 13,5 15,9 2 1 11 6 NO 1018,2 3,0 0 0,0
15.11.2018 05:00:00 7,1 7,0 5,7 13,6 15,9 3 2 8 4 NO 1018,2 3,4 0 0,0
15.11.2018 04:00:00 7,4 7,3 6,6 13,7 15,9 4 2 9 5 NO 1018,2 0,3 0 0,0
15.11.2018 03:00:00 8,1 8,0 5,9 13,8 15,9 6 3 8 5 NO 1018,4 2,7 0 0,0
15.11.2018 02:00:00 8,1 7,8 6,5 13,9 15,9 3 1 5 3 NNO 1018,5 0,9 0 0,0
15.11.2018 01:00:00 8,5 8,2 7,0 13,9 15,9 0 0 4 2 N 1018,9 0,2 0 0,0
15.11.2018 00:00:00 9,1 9,0 7,7 14,0 15,9 0 0 5 3 N 1019,2 0,2 0 0,0
14.11.2018 23:00:00 9,1 8,6 8,0 14,1 15,9 0 0 2 1 N 1019,3 0,1 0 0,0
14.11.2018 22:00:00 10,4 9,9 9,1 14,1 15,9 0 0 4 2 N 1019,4 0,1 0 0,0
14.11.2018 21:00:00 11,6 11,1 10,2 14,2 15,9 2 1 7 4 OZO 1019,4 0,1 0 0,0
14.11.2018 20:00:00 12,4 11,3 11,3 14,2 15,9 0 0 11 6 N 1019,8 0,6 0 0,0
14.11.2018 19:00:00 13,7 12,6 12,3 14,2 15,9 4 2 9 5 NO 1019,8 4,2 0 0,0
14.11.2018 18:00:00 14,6 13,0 13,1 14,1 15,9 3 2 11 6 O 1019,8 7 1 0,0
14.11.2018 17:00:00 16,0 13,1 15,7 14,0 15,9 3 2 14 8 O 1019,9 10 24 0,0
14.11.2018 16:00:00 16,4 13,3 16,8 13,9 15,9 9 5 15 8 O 1020,1 11 55 0,0
14.11.2018 15:00:00 14,4 12,3 14,0 13,8 15,9 10 5 18 10 ONO 1020,5 7 49 0,0
14.11.2018 14:00:00 12,5 11,9 13,0 13,7 15,9 10 5 19 10 ONO 1021,1 4,0 3 0,0
14.11.2018 13:00:00 11,5 11,5 11,1 13,7 15,9 7 4 13 7 ONO 1021,5 0,9 0 0,0
14.11.2018 12:00:00 10,7 10,7 10,6 13,7 15,9 8 5 15 8 O 1022,4 0,3 0 0,0

tt = temperatuur
td = dauwpunt
tt 5cm = temperatuur 5cm
tt -20cm = temperatuur -20cm
tt -100cm = temperatuur -100cm
ff = windsnelheid
fx = windstoten
dd = windrichting
ppp = luchtdruk
vv = zicht
sd = Zonneschijnduur
rr = neerslag

Weerstations in de omgeving